Simultaneous Nadir Overpasses (SNOs) Predictions

Prediction of SNOs between GOES-17 and METOP-C Satellite Orbit:

Table of predicted SNOs for the next 14.0 days since TLE Epoch: 11/18/2023
Index Date Time (GOES-17) GOES-17 Lat,Lon METOP-C Lat,Lon Distance(km) Time Diff (sec)
1 11/19/2023 04:30:38 -0.04,-104.66 -0.09,-104.96 33.70 80
2 11/21/2023 16:28:52 0.05,-104.67 0.04,-104.52 16.52 80
3 11/24/2023 04:24:34 -0.05,-104.66 0.05,-104.12 60.97 80
4 11/25/2023 16:43:28 0.04,-104.67 0.91,-108.70 458.54 80
5 11/26/2023 16:25:29 0.04,-104.67 -0.16,-103.69 110.67 80
6 11/28/2023 04:44:29 -0.04,-104.66 -0.87,-108.29 413.39 80
7 11/29/2023 04:21:11 -0.05,-104.66 0.27,-103.30 155.61 80
8 11/30/2023 16:40:04 0.05,-104.67 0.75,-107.87 364.16 80
9 12/01/2023 16:22:05 0.06,-104.67 -0.33,-102.86 205.28 80
